Location: Biltmore Gardens
(41.6070°N, 83.4666°W)
Time: 15:21:26
(UTC+00:00)

YAOGAN 11 - Pass Details

Date: 14 July 2020
Orbit: 614 x 668 km, 98.3° (Epoch: 12 August)

Event Time Altitude Azimuth Distance (km) Brightness Sun altitude
Exits shadow 05:37:08 63° 29° (NNE) 720 4.5 -26.8°
Drops below altitude 10° 05:41:05 10° 352° (N) 2,058 7.7 -26.8°
Sets 05:43:19 0° 350° (N) 2,981 8.8 -26.8°
